Time,TemperatureF,DewpointF,PressureIn,WindDirection,WindDirectionDegrees,WindSpeedMPH,WindSpeedGustMPH,Humidity,HourlyPrecipIn,Conditions,Clouds,dailyrainin,SoftwareType,DateUTC
2013-08-20 00:01:00,65.7,65.1,31.01,WSW,249,0.0,0.0,98,0.00,,---,0.00,VWS V14.01,2013-08-20 04:01:00,
2013-08-20 00:06:00,65.5,64.9,31.01,WSW,249,0.0,0.0,98,0.00,,---,0.00,VWS V14.01,2013-08-20 04:06:00,
2013-08-20 00:11:00,65.3,64.7,31.01,WSW,249,0.0,0.0,98,0.00,,---,0.00,VWS V14.01,2013-08-20 04:11:00,
2013-08-20 00:16:00,65.1,64.5,31.01,WSW,249,0.0,0.0,98,0.00,,---,0.00,VWS V14.01,2013-08-20 04:16:00,
2013-08-20 00:21:00,65.1,64.5,31.01,WSW,249,0.0,0.0,98,0.00,,---,0.00,VWS V14.01,2013-08-20 04:21:00,
2013-08-20 00:26:00,65.1,64.5,31.01,WSW,249,0.0,0.0,98,0.00,,---,0.00,VWS V14.01,2013-08-20 04:26:00,
2013-08-20 00:31:00,64.9,64.4,31.01,WSW,249,0.0,0.0,98,0.00,,---,0.00,VWS V14.01,2013-08-20 04:31:00,
2013-08-20 00:36:00,64.9,64.4,31.01,WSW,249,0.0,0.0,98,0.00,,---,0.00,VWS V14.01,2013-08-20 04:36:00,
2013-08-20 00:41:00,64.9,64.4,31.01,WSW,249,0.0,0.0,98,0.00,,---,0.00,VWS V14.01,2013-08-20 04:41:00,
2013-08-20 00:46:00,64.9,64.4,31.01,WSW,249,0.0,0.0,98,0.00,,---,0.00,VWS V14.01,2013-08-20 04:46:00,
2013-08-20 00:51:00,64.9,64.4,31.01,WSW,249,0.0,0.0,98,0.00,,---,0.00,VWS V14.01,2013-08-20 04:51:00,
2013-08-20 00:56:00,64.8,64.2,31.01,WSW,249,0.0,0.0,98,0.00,,---,0.00,VWS V14.01,2013-08-20 04:56:00,
2013-08-20 01:01:00,64.8,64.2,31.01,WSW,249,0.0,0.0,98,0.00,,---,0.00,VWS V14.01,2013-08-20 05:01:00,
2013-08-20 01:06:00,64.9,64.4,31.01,WSW,249,0.0,0.0,98,0.00,,---,0.00,VWS V14.01,2013-08-20 05:06:00,
2013-08-20 01:11:00,64.9,64.4,31.01,WSW,249,0.0,0.0,98,0.00,,---,0.00,VWS V14.01,2013-08-20 05:11:00,
2013-08-20 01:16:00,64.9,64.4,31.01,WSW,249,0.0,0.0,98,0.00,,---,0.00,VWS V14.01,2013-08-20 05:16:00,
2013-08-20 01:21:00,64.9,64.4,31.01,WSW,249,0.0,0.0,98,0.00,,---,0.00,VWS V14.01,2013-08-20 05:21:00,
2013-08-20 01:26:00,64.9,64.4,31.01,WSW,249,0.0,0.0,98,0.00,,---,0.00,VWS V14.01,2013-08-20 05:26:00,
2013-08-20 01:31:00,64.9,64.4,31.01,WSW,249,0.0,0.0,98,0.00,,---,0.00,VWS V14.01,2013-08-20 05:31:00,
2013-08-20 01:36:00,64.8,64.2,31.01,WSW,249,0.0,0.0,98,0.00,,---,0.00,VWS V14.01,2013-08-20 05:36:00,
2013-08-20 01:41:00,64.8,64.2,31.01,WSW,249,0.0,0.0,98,0.00,,---,0.00,VWS V14.01,2013-08-20 05:41:00,
2013-08-20 01:46:00,64.4,63.8,31.01,WSW,249,0.0,0.0,98,0.00,,---,0.00,VWS V14.01,2013-08-20 05:46:00,
2013-08-20 01:51:00,64.4,63.8,31.01,WSW,249,0.0,0.0,98,0.00,,---,0.00,VWS V14.01,2013-08-20 05:51:00,
2013-08-20 01:56:00,64.2,63.7,31.01,WSW,249,0.0,0.0,98,0.00,,---,0.00,VWS V14.01,2013-08-20 05:56:00,
2013-08-20 02:01:00,64.2,63.7,31.01,WSW,249,0.0,0.0,98,0.00,,---,0.00,VWS V14.01,2013-08-20 06:01:00,
2013-08-20 02:06:00,64.4,63.8,31.01,WSW,249,0.0,0.0,98,0.00,,---,0.00,VWS V14.01,2013-08-20 06:06:00,
2013-08-20 02:11:00,64.4,63.8,31.01,WSW,249,0.0,0.0,98,0.00,,---,0.00,VWS V14.01,2013-08-20 06:11:00,
2013-08-20 02:16:00,64.4,63.8,31.01,WSW,249,0.0,0.0,98,0.00,,---,0.00,VWS V14.01,2013-08-20 06:16:00,
2013-08-20 02:21:00,64.6,64.0,31.01,WSW,249,0.0,0.0,98,0.00,,---,0.00,VWS V14.01,2013-08-20 06:21:00,
2013-08-20 02:26:00,64.6,64.0,31.01,WSW,249,0.0,0.0,98,0.00,,---,0.00,VWS V14.01,2013-08-20 06:26:00,
2013-08-20 02:31:00,64.8,64.2,31.01,WSW,249,0.0,0.0,98,0.00,,---,0.00,VWS V14.01,2013-08-20 06:31:00,
2013-08-20 02:36:00,64.8,64.2,31.01,WSW,249,0.0,0.0,98,0.00,,---,0.00,VWS V14.01,2013-08-20 06:36:00,
2013-08-20 02:41:00,64.8,64.2,31.01,WSW,249,0.0,0.0,98,0.00,,---,0.00,VWS V14.01,2013-08-20 06:41:00,
2013-08-20 02:46:00,64.8,64.2,31.01,WSW,249,0.0,0.0,98,0.00,,---,0.00,VWS V14.01,2013-08-20 06:46:00,
2013-08-20 02:51:00,64.9,64.4,31.01,WSW,249,0.0,0.0,98,0.00,,---,0.00,VWS V14.01,2013-08-20 06:51:00,
2013-08-20 02:56:00,64.8,64.2,31.01,WSW,249,0.0,0.0,98,0.00,,---,0.00,VWS V14.01,2013-08-20 06:56:00,
2013-08-20 03:01:00,64.8,64.2,31.01,WSW,249,0.0,0.0,98,0.00,,---,0.00,VWS V14.01,2013-08-20 07:01:00,
2013-08-20 03:06:00,64.8,64.2,31.01,WSW,249,0.0,0.0,98,0.00,,---,0.00,VWS V14.01,2013-08-20 07:06:00,
2013-08-20 03:11:00,64.8,64.2,31.01,WSW,249,0.0,0.0,98,0.00,,---,0.00,VWS V14.01,2013-08-20 07:11:00,
2013-08-20 03:16:00,64.9,64.4,31.01,WSW,249,0.0,0.0,98,0.00,,---,0.00,VWS V14.01,2013-08-20 07:16:00,
2013-08-20 03:21:00,64.9,64.4,31.01,WSW,249,0.0,0.0,98,0.00,,---,0.00,VWS V14.01,2013-08-20 07:21:00,
2013-08-20 03:26:00,64.9,64.4,31.01,WSW,249,0.0,0.0,98,0.00,,---,0.00,VWS V14.01,2013-08-20 07:26:00,
2013-08-20 03:31:00,64.8,64.2,31.01,WSW,249,0.0,0.0,98,0.00,,---,0.00,VWS V14.01,2013-08-20 07:31:00,
2013-08-20 03:36:00,64.8,64.2,31.01,WSW,249,0.0,0.0,98,0.00,,---,0.00,VWS V14.01,2013-08-20 07:36:00,
2013-08-20 03:41:00,64.6,64.0,31.01,WSW,249,0.0,0.0,98,0.00,,---,0.00,VWS V14.01,2013-08-20 07:41:00,
2013-08-20 03:46:00,64.6,64.0,31.01,WSW,249,0.0,0.0,98,0.00,,---,0.00,VWS V14.01,2013-08-20 07:46:00,
2013-08-20 03:51:00,64.4,63.8,31.01,WSW,249,0.0,0.0,98,0.00,,---,0.00,VWS V14.01,2013-08-20 07:51:00,
2013-08-20 03:56:00,64.4,63.8,31.01,WSW,249,0.0,0.0,98,0.00,,---,0.00,VWS V14.01,2013-08-20 07:56:00,
2013-08-20 04:01:00,64.4,63.8,31.01,WSW,249,0.0,0.0,98,0.00,,---,0.00,VWS V14.01,2013-08-20 08:01:00,
2013-08-20 04:06:00,64.4,63.8,31.01,WSW,249,0.0,0.0,98,0.00,,---,0.00,VWS V14.01,2013-08-20 08:06:00,
2013-08-20 04:11:00,64.6,64.0,31.01,WSW,249,0.0,0.0,98,0.00,,---,0.00,VWS V14.01,2013-08-20 08:11:00,
2013-08-20 04:16:00,64.6,64.0,31.01,WSW,249,0.0,0.0,98,0.00,,---,0.00,VWS V14.01,2013-08-20 08:16:00,
2013-08-20 04:21:00,64.6,64.0,31.01,WSW,249,0.0,0.0,98,0.00,,---,0.00,VWS V14.01,2013-08-20 08:21:00,
2013-08-20 04:26:00,64.6,64.0,31.01,WSW,249,0.0,0.0,98,0.00,,---,0.00,VWS V14.01,2013-08-20 08:26:00,
2013-08-20 04:31:00,64.8,64.2,31.01,WSW,249,0.0,0.0,98,0.00,,---,0.00,VWS V14.01,2013-08-20 08:31:00,
2013-08-20 04:36:00,64.6,64.0,31.01,WSW,249,0.0,0.0,98,0.00,,---,0.00,VWS V14.01,2013-08-20 08:36:00,
2013-08-20 04:41:00,64.4,63.8,31.01,WSW,249,0.0,0.0,98,0.00,,---,0.00,VWS V14.01,2013-08-20 08:41:00,
2013-08-20 04:46:00,64.4,63.8,31.01,WSW,249,0.0,0.0,98,0.00,,---,0.00,VWS V14.01,2013-08-20 08:46:00,
2013-08-20 04:51:00,64.4,63.8,31.01,WSW,249,0.0,0.0,98,0.00,,---,0.00,VWS V14.01,2013-08-20 08:51:00,
2013-08-20 04:56:00,64.4,63.8,31.01,WSW,249,0.0,0.0,98,0.00,,---,0.00,VWS V14.01,2013-08-20 08:56:00,
2013-08-20 05:01:00,64.4,63.8,31.01,WSW,249,0.0,0.0,98,0.00,,---,0.00,VWS V14.01,2013-08-20 09:01:00,
2013-08-20 05:06:00,64.6,64.0,31.01,WSW,249,0.0,0.0,98,0.00,,---,0.00,VWS V14.01,2013-08-20 09:06:00,
2013-08-20 05:11:00,64.6,64.0,31.01,WSW,249,0.0,0.0,98,0.00,,---,0.00,VWS V14.01,2013-08-20 09:11:00,
2013-08-20 05:16:00,64.4,63.8,31.01,WSW,249,0.0,0.0,98,0.00,,---,0.00,VWS V14.01,2013-08-20 09:16:00,
2013-08-20 05:21:00,64.4,63.8,31.01,WSW,249,0.0,0.0,98,0.00,,---,0.00,VWS V14.01,2013-08-20 09:21:00,
2013-08-20 05:26:00,64.4,63.8,31.01,WSW,249,0.0,0.0,98,0.00,,---,0.00,VWS V14.01,2013-08-20 09:26:00,
2013-08-20 05:31:00,64.6,64.0,31.01,WSW,249,0.0,0.0,98,0.00,,---,0.00,VWS V14.01,2013-08-20 09:31:00,
2013-08-20 05:36:00,64.6,64.0,31.01,WSW,249,0.0,0.0,98,0.00,,---,0.00,VWS V14.01,2013-08-20 09:36:00,
2013-08-20 05:41:00,64.6,64.0,31.01,WSW,249,0.0,0.0,98,0.00,,---,0.00,VWS V14.01,2013-08-20 09:41:00,
2013-08-20 05:46:00,64.6,64.0,31.01,WSW,249,0.0,0.0,98,0.00,,---,0.00,VWS V14.01,2013-08-20 09:46:00,
2013-08-20 05:51:00,64.6,64.0,31.01,WSW,249,0.0,0.0,98,0.00,,---,0.00,VWS V14.01,2013-08-20 09:51:00,
2013-08-20 05:56:00,64.6,64.0,31.01,WSW,249,0.0,0.0,98,0.00,,---,0.00,VWS V14.01,2013-08-20 09:56:00,
2013-08-20 06:01:00,64.4,63.8,31.01,WSW,249,0.0,0.0,98,0.00,,---,0.00,VWS V14.01,2013-08-20 10:01:00,
2013-08-20 06:06:00,64.6,64.0,31.01,WSW,249,0.0,0.0,98,0.00,,---,0.00,VWS V14.01,2013-08-20 10:06:00,
2013-08-20 06:11:00,64.8,64.2,31.01,WSW,249,0.0,0.0,98,0.00,,---,0.00,VWS V14.01,2013-08-20 10:11:00,
2013-08-20 06:16:00,64.8,64.2,31.01,WSW,249,0.0,0.0,98,0.00,,---,0.00,VWS V14.01,2013-08-20 10:16:00,
2013-08-20 06:21:00,64.8,64.2,31.01,WSW,249,0.0,0.0,98,0.00,,---,0.00,VWS V14.01,2013-08-20 10:21:00,
2013-08-20 06:26:00,64.9,64.4,31.01,WSW,249,0.0,0.0,98,0.00,,---,0.00,VWS V14.01,2013-08-20 10:26:00,
2013-08-20 06:31:00,64.9,64.4,31.01,WSW,249,0.0,0.0,98,0.00,,---,0.00,VWS V14.01,2013-08-20 10:31:00,
2013-08-20 06:36:00,64.9,64.4,31.01,WSW,249,0.0,0.0,98,0.00,,---,0.00,VWS V14.01,2013-08-20 10:36:00,
2013-08-20 06:41:00,64.9,64.4,31.01,WSW,249,0.0,0.0,98,0.00,,---,0.00,VWS V14.01,2013-08-20 10:41:00,
2013-08-20 06:46:00,65.1,64.5,31.01,WSW,249,0.0,0.0,98,0.00,,---,0.00,VWS V14.01,2013-08-20 10:46:00,
2013-08-20 06:51:00,65.1,64.5,31.01,WSW,249,0.0,0.0,98,0.00,,---,0.00,VWS V14.01,2013-08-20 10:51:00,
2013-08-20 06:56:00,65.1,64.5,31.01,WSW,249,0.0,0.0,98,0.00,,---,0.00,VWS V14.01,2013-08-20 10:56:00,
2013-08-20 07:01:00,65.1,64.5,31.01,WSW,249,0.0,0.0,98,0.00,,---,0.00,VWS V14.01,2013-08-20 11:01:00,
2013-08-20 07:06:00,65.1,64.5,31.01,WSW,249,0.0,0.0,98,0.00,,---,0.00,VWS V14.01,2013-08-20 11:06:00,
2013-08-20 07:11:00,65.1,64.5,31.01,WSW,249,0.0,0.0,98,0.00,,---,0.00,VWS V14.01,2013-08-20 11:11:00,
2013-08-20 07:16:00,65.3,64.7,31.01,WSW,249,0.0,0.0,98,0.00,,---,0.00,VWS V14.01,2013-08-20 11:16:00,
2013-08-20 07:21:00,65.3,64.7,31.01,WSW,249,0.0,0.0,98,0.00,,---,0.00,VWS V14.01,2013-08-20 11:21:00,
2013-08-20 07:26:00,65.5,64.9,31.01,WSW,249,0.0,0.0,98,0.00,,---,0.00,VWS V14.01,2013-08-20 11:26:00,
2013-08-20 07:31:00,65.5,64.9,31.01,WSW,249,0.0,0.0,98,0.00,,---,0.00,VWS V14.01,2013-08-20 11:31:00,
2013-08-20 07:36:00,65.5,64.9,31.01,WSW,249,0.0,0.0,98,0.00,,---,0.00,VWS V14.01,2013-08-20 11:36:00,
2013-08-20 07:41:00,65.7,65.1,31.01,WSW,249,0.0,0.0,98,0.00,,---,0.00,VWS V14.01,2013-08-20 11:41:00,
2013-08-20 07:46:00,65.7,65.1,31.01,WSW,249,0.0,0.0,98,0.00,,---,0.00,VWS V14.01,2013-08-20 11:46:00,
2013-08-20 07:51:00,65.7,65.1,31.01,WSW,249,0.0,0.0,98,0.00,,---,0.00,VWS V14.01,2013-08-20 11:51:00,
2013-08-20 07:56:00,65.8,65.3,31.01,WSW,249,0.0,0.0,98,0.00,,---,0.00,VWS V14.01,2013-08-20 11:56:00,
2013-08-20 08:01:00,65.8,65.3,31.01,WSW,249,0.0,0.0,98,0.00,,---,0.00,VWS V14.01,2013-08-20 12:01:00,
2013-08-20 08:06:00,65.8,65.3,31.01,WSW,249,0.0,0.0,98,0.00,,---,0.00,VWS V14.01,2013-08-20 12:06:00,
2013-08-20 08:11:00,65.8,65.3,31.01,WSW,249,0.0,0.0,98,0.00,,---,0.00,VWS V14.01,2013-08-20 12:11:00,
2013-08-20 08:16:00,66.0,65.4,31.01,WSW,249,0.0,0.0,98,0.00,,---,0.00,VWS V14.01,2013-08-20 12:16:00,
2013-08-20 08:21:00,66.2,65.6,31.01,WSW,249,0.0,0.0,98,0.00,,---,0.00,VWS V14.01,2013-08-20 12:21:00,
2013-08-20 08:26:00,66.2,65.6,31.01,WSW,249,0.0,0.0,98,0.00,,---,0.00,VWS V14.01,2013-08-20 12:26:00,
2013-08-20 08:31:00,66.4,65.8,31.01,WSW,249,0.0,0.0,98,0.00,,---,0.00,VWS V14.01,2013-08-20 12:31:00,
2013-08-20 08:36:00,66.4,65.8,31.01,WSW,249,0.0,0.0,98,0.00,,---,0.00,VWS V14.01,2013-08-20 12:36:00,
2013-08-20 08:41:00,66.4,65.8,31.01,WSW,249,0.0,0.0,98,0.00,,---,0.00,VWS V14.01,2013-08-20 12:41:00,
2013-08-20 08:46:00,66.6,66.0,31.01,WSW,249,0.0,0.0,98,0.00,,---,0.00,VWS V14.01,2013-08-20 12:46:00,
2013-08-20 08:51:00,66.6,66.0,31.01,WSW,249,0.0,0.0,98,0.00,,---,0.00,VWS V14.01,2013-08-20 12:51:00,
2013-08-20 08:56:00,66.6,66.0,31.01,WSW,249,0.0,0.0,98,0.00,,---,0.00,VWS V14.01,2013-08-20 12:56:00,
2013-08-20 09:01:00,66.6,66.0,31.01,WSW,249,0.0,0.0,98,0.00,,---,0.00,VWS V14.01,2013-08-20 13:01:00,
2013-08-20 09:06:00,66.6,66.0,31.01,WSW,249,0.0,0.0,98,0.00,,---,0.00,VWS V14.01,2013-08-20 13:06:00,
2013-08-20 09:11:00,66.7,66.2,31.01,WSW,249,0.0,0.0,98,0.00,,---,0.00,VWS V14.01,2013-08-20 13:11:00,
2013-08-20 09:16:00,67.1,66.5,31.01,WSW,249,0.0,0.0,98,0.00,,---,0.00,VWS V14.01,2013-08-20 13:16:00,
2013-08-20 09:21:00,67.3,66.7,31.01,WSW,249,0.0,0.0,98,0.00,,---,0.00,VWS V14.01,2013-08-20 13:21:00,
2013-08-20 09:26:00,67.3,66.7,31.01,WSW,249,0.0,0.0,98,0.00,,---,0.00,VWS V14.01,2013-08-20 13:26:00,
2013-08-20 09:31:00,67.5,66.9,31.01,WSW,249,0.0,0.0,98,0.00,,---,0.00,VWS V14.01,2013-08-20 13:31:00,
2013-08-20 09:36:00,67.6,67.1,31.01,WSW,249,0.0,0.0,98,0.00,,---,0.00,VWS V14.01,2013-08-20 13:36:00,
2013-08-20 09:41:00,67.8,67.2,31.01,WSW,249,0.0,0.0,98,0.00,,---,0.00,VWS V14.01,2013-08-20 13:41:00,
2013-08-20 09:46:00,68.2,67.6,31.01,WSW,249,0.0,0.0,98,0.00,,---,0.00,VWS V14.01,2013-08-20 13:46:00,
2013-08-20 09:51:00,68.4,67.8,31.01,East,100,0.0,0.0,98,0.00,,---,0.00,VWS V14.01,2013-08-20 13:51:00,
2013-08-20 09:56:00,68.4,67.8,31.01,East,100,0.0,0.0,98,0.00,,---,0.00,VWS V14.01,2013-08-20 13:56:00,
2013-08-20 10:01:00,68.5,68.0,31.01,East,100,0.0,0.0,98,0.00,,---,0.00,VWS V14.01,2013-08-20 14:01:00,
2013-08-20 10:06:00,68.7,68.1,31.01,East,100,0.0,0.0,98,0.00,,---,0.00,VWS V14.01,2013-08-20 14:06:00,
2013-08-20 10:11:00,68.9,68.3,31.01,East,100,0.0,0.0,98,0.00,,---,0.00,VWS V14.01,2013-08-20 14:11:00,
2013-08-20 10:16:00,69.1,68.5,31.01,East,100,0.0,0.0,98,0.00,,---,0.00,VWS V14.01,2013-08-20 14:16:00,
2013-08-20 10:21:00,69.1,68.5,31.01,East,100,0.0,0.0,98,0.00,,---,0.00,VWS V14.01,2013-08-20 14:21:00,
2013-08-20 10:26:00,69.1,68.5,31.01,East,100,0.0,0.0,98,0.00,,---,0.00,VWS V14.01,2013-08-20 14:26:00,
2013-08-20 10:31:00,69.3,68.7,31.01,East,100,0.0,0.0,98,0.00,,---,0.00,VWS V14.01,2013-08-20 14:31:00,
2013-08-20 10:36:00,69.4,68.8,31.01,East,100,0.0,0.0,98,0.00,,---,0.00,VWS V14.01,2013-08-20 14:36:00,
2013-08-20 10:41:00,70.0,69.4,31.01,East,100,0.0,0.0,98,0.00,,---,0.00,VWS V14.01,2013-08-20 14:41:00,
2013-08-20 10:46:00,70.3,69.8,31.01,East,100,0.0,0.0,98,0.00,,---,0.00,VWS V14.01,2013-08-20 14:46:00,
2013-08-20 10:51:00,70.3,69.8,31.01,East,100,0.0,0.0,98,0.00,,---,0.00,VWS V14.01,2013-08-20 14:51:00,
2013-08-20 10:56:00,70.3,69.8,31.01,East,100,0.0,0.0,98,0.00,,---,0.00,VWS V14.01,2013-08-20 14:56:00,
2013-08-20 11:01:00,70.5,69.9,31.01,East,100,0.0,0.0,98,0.00,,---,0.00,VWS V14.01,2013-08-20 15:01:00,
2013-08-20 11:06:00,70.3,69.8,31.01,East,100,0.0,0.0,98,0.00,,---,0.00,VWS V14.01,2013-08-20 15:06:00,
2013-08-20 11:11:00,70.9,70.3,31.01,East,100,0.0,0.0,98,0.00,,---,0.00,VWS V14.01,2013-08-20 15:11:00,
2013-08-20 11:16:00,71.6,71.0,31.01,East,100,0.0,0.0,98,0.00,,---,0.00,VWS V14.01,2013-08-20 15:16:00,
2013-08-20 11:21:00,72.0,71.4,31.01,East,100,0.0,0.0,98,0.00,,---,0.00,VWS V14.01,2013-08-20 15:21:00,
2013-08-20 11:26:00,72.5,71.9,31.01,East,100,0.0,0.0,98,0.00,,---,0.00,VWS V14.01,2013-08-20 15:26:00,
2013-08-20 11:31:00,72.7,72.1,31.01,East,100,0.0,0.0,98,0.00,,---,0.00,VWS V14.01,2013-08-20 15:31:00,
2013-08-20 11:36:00,73.0,72.4,31.01,East,100,3.1,3.1,98,0.00,,---,0.00,VWS V14.01,2013-08-20 15:36:00,
2013-08-20 11:41:00,72.7,72.1,31.01,East,100,0.0,0.0,98,0.00,,---,0.00,VWS V14.01,2013-08-20 15:41:00,
2013-08-20 11:46:00,72.5,71.9,31.01,East,100,0.0,0.0,98,0.00,,---,0.00,VWS V14.01,2013-08-20 15:46:00,
2013-08-20 11:51:00,72.5,71.9,31.01,East,100,0.0,0.0,98,0.00,,---,0.00,VWS V14.01,2013-08-20 15:51:00,
2013-08-20 11:55:00,72.3,71.7,31.01,East,100,0.0,0.0,98,0.00,,---,0.00,VWS V14.01,2013-08-20 15:55:00,
2013-08-20 12:01:00,73.0,72.1,31.01,East,100,0.0,0.0,97,0.00,,---,0.00,VWS V14.01,2013-08-20 16:01:00,
2013-08-20 12:05:00,73.8,72.6,31.01,East,100,2.2,2.7,96,0.00,,---,0.00,VWS V14.01,2013-08-20 16:05:00,
2013-08-20 12:11:00,74.1,72.6,31.01,East,100,0.0,0.0,95,0.00,,---,0.00,VWS V14.01,2013-08-20 16:11:00,
2013-08-20 12:15:00,74.5,73.0,31.01,East,100,0.0,2.2,95,0.00,,---,0.00,VWS V14.01,2013-08-20 16:15:00,
2013-08-20 12:20:00,74.5,72.6,31.01,East,100,2.2,3.1,94,0.00,,---,0.00,VWS V14.01,2013-08-20 16:20:00,
2013-08-20 12:25:00,75.0,73.2,31.01,East,100,2.7,2.7,94,0.00,,---,0.00,VWS V14.01,2013-08-20 16:25:00,
2013-08-20 12:31:00,75.0,72.9,31.01,East,100,0.0,0.0,93,0.00,,---,0.00,VWS V14.01,2013-08-20 16:31:00,
2013-08-20 12:36:00,75.6,72.8,31.01,East,100,0.0,2.7,91,0.00,,---,0.00,VWS V14.01,2013-08-20 16:36:00,
2013-08-20 12:41:00,75.7,71.9,31.01,East,100,3.6,3.6,88,0.00,,---,0.00,VWS V14.01,2013-08-20 16:41:00,
2013-08-20 12:46:00,76.1,72.3,31.01,East,99,2.7,2.7,88,0.00,,---,0.00,VWS V14.01,2013-08-20 16:46:00,
2013-08-20 12:51:00,75.6,71.4,31.01,ENE,70,2.2,3.1,87,0.00,,---,0.00,VWS V14.01,2013-08-20 16:51:00,
2013-08-20 12:56:00,75.4,70.9,31.01,ENE,75,2.2,2.7,86,0.00,,---,0.00,VWS V14.01,2013-08-20 16:56:00,
2013-08-20 13:01:00,75.4,70.9,31.01,ENE,77,2.7,3.1,86,0.00,,---,0.00,VWS V14.01,2013-08-20 17:01:00,
2013-08-20 13:06:00,75.7,71.6,31.01,East,90,2.2,2.7,87,0.00,,---,0.00,VWS V14.01,2013-08-20 17:06:00,
2013-08-20 13:11:00,76.1,71.9,31.01,SE,146,0.0,0.0,87,0.00,,---,0.00,VWS V14.01,2013-08-20 17:11:00,
2013-08-20 13:16:00,76.3,72.1,31.01,SE,144,0.0,0.0,87,0.00,,---,0.00,VWS V14.01,2013-08-20 17:16:00,
2013-08-20 13:21:00,76.5,71.6,31.01,SE,144,2.2,2.7,85,0.00,,---,0.00,VWS V14.01,2013-08-20 17:21:00,
2013-08-20 13:26:00,76.5,72.0,31.01,SE,144,2.2,2.2,86,0.00,,---,0.00,VWS V14.01,2013-08-20 17:26:00,
2013-08-20 13:31:00,76.6,71.8,31.01,SE,142,0.0,0.0,85,0.00,,---,0.00,VWS V14.01,2013-08-20 17:31:00,
2013-08-20 13:36:00,77.0,71.4,31.01,SE,128,2.2,3.6,83,0.00,,---,0.00,VWS V14.01,2013-08-20 17:36:00,
2013-08-20 13:41:00,77.9,71.6,31.01,SE,128,0.0,0.0,81,0.00,,---,0.00,VWS V14.01,2013-08-20 17:41:00,
2013-08-20 13:46:00,78.3,71.6,31.01,SE,128,0.0,0.0,80,0.00,,---,0.00,VWS V14.01,2013-08-20 17:46:00,
2013-08-20 13:51:00,78.3,72.0,31.01,SE,128,2.7,2.7,81,0.00,,---,0.00,VWS V14.01,2013-08-20 17:51:00,
2013-08-20 13:56:00,78.6,71.9,31.01,SE,128,0.0,2.7,80,0.00,,---,0.00,VWS V14.01,2013-08-20 17:56:00,
2013-08-20 14:01:00,78.6,72.3,31.01,SE,128,0.0,0.0,81,0.00,,---,0.00,VWS V14.01,2013-08-20 18:01:00,
2013-08-20 14:06:00,78.3,72.7,31.01,SE,128,2.2,2.7,83,0.00,,---,0.00,VWS V14.01,2013-08-20 18:06:00,
2013-08-20 14:11:00,78.3,72.3,31.01,SE,128,0.0,0.0,82,0.00,,---,0.00,VWS V14.01,2013-08-20 18:11:00,
2013-08-20 14:16:00,78.4,72.5,31.01,SE,128,0.0,0.0,82,0.00,,---,0.00,VWS V14.01,2013-08-20 18:16:00,
2013-08-20 14:21:00,79.0,72.3,31.01,ESE,122,0.0,3.1,80,0.00,,---,0.00,VWS V14.01,2013-08-20 18:21:00,
2013-08-20 14:26:00,79.2,72.1,31.01,ESE,122,0.0,2.2,79,0.00,,---,0.00,VWS V14.01,2013-08-20 18:26:00,
2013-08-20 14:31:00,79.3,71.9,31.01,ESE,122,0.0,2.2,78,0.00,,---,0.00,VWS V14.01,2013-08-20 18:31:00,
2013-08-20 14:36:00,79.3,72.3,31.01,SE,146,0.0,0.0,79,0.00,,---,0.00,VWS V14.01,2013-08-20 18:36:00,
2013-08-20 14:41:00,79.2,71.3,31.01,SE,124,0.0,0.0,77,0.00,,---,0.00,VWS V14.01,2013-08-20 18:41:00,
2013-08-20 14:46:00,79.3,71.9,31.01,SE,124,2.2,2.2,78,0.00,,---,0.00,VWS V14.01,2013-08-20 18:46:00,
2013-08-20 14:51:00,79.0,71.5,31.01,SE,124,0.0,0.0,78,0.00,,---,0.00,VWS V14.01,2013-08-20 18:51:00,
2013-08-20 14:56:00,79.0,71.9,31.01,SE,124,0.0,0.0,79,0.00,,---,0.00,VWS V14.01,2013-08-20 18:56:00,
2013-08-20 15:00:00,79.3,72.3,31.01,SE,124,0.0,0.0,79,0.00,,---,0.00,VWS V14.01,2013-08-20 19:00:00,
2013-08-20 16:58:00,77.5,71.2,31.01,East,85,3.1,3.1,81,0.00,,---,0.00,VWS V14.01,2013-08-20 20:58:00,
2013-08-20 17:03:00,77.9,71.2,31.01,ENE,69,2.2,2.2,80,0.00,,---,0.00,VWS V14.01,2013-08-20 21:03:00,
2013-08-20 17:08:00,77.7,70.3,31.01,SSW,202,0.0,0.0,78,0.00,,---,0.00,VWS V14.01,2013-08-20 21:08:00,
2013-08-20 17:13:00,77.9,70.1,31.01,SSW,202,2.2,2.7,77,0.00,,---,0.00,VWS V14.01,2013-08-20 21:13:00,
2013-08-20 17:18:00,77.9,70.1,31.01,SE,139,2.2,2.7,77,0.00,,---,0.00,VWS V14.01,2013-08-20 21:18:00,
2013-08-20 17:23:00,77.9,70.5,31.01,ESE,115,0.0,2.2,78,0.00,,---,0.00,VWS V14.01,2013-08-20 21:23:00,
2013-08-20 17:28:00,77.9,70.9,31.01,ENE,75,4.9,4.9,79,0.00,,---,0.00,VWS V14.01,2013-08-20 21:28:00,
2013-08-20 17:33:00,77.4,70.3,31.01,NNE,30,0.0,0.0,79,0.00,,---,0.00,VWS V14.01,2013-08-20 21:33:00,
2013-08-20 17:38:00,77.2,70.2,31.01,ESE,107,0.0,0.0,79,0.00,,---,0.00,VWS V14.01,2013-08-20 21:38:00,
2013-08-20 17:43:00,77.2,70.2,31.01,NNE,20,0.0,2.2,79,0.00,,---,0.00,VWS V14.01,2013-08-20 21:43:00,
2013-08-20 17:48:00,77.0,70.7,31.01,NNE,20,0.0,0.0,81,0.00,,---,0.00,VWS V14.01,2013-08-20 21:48:00,
2013-08-20 17:53:00,77.0,71.4,31.01,NNE,20,0.0,0.0,83,0.00,,---,0.00,VWS V14.01,2013-08-20 21:53:00,
2013-08-20 17:58:00,76.6,71.8,31.01,NNE,20,0.0,0.0,85,0.00,,---,0.00,VWS V14.01,2013-08-20 21:58:00,
2013-08-20 18:03:00,76.1,71.6,31.01,NNE,20,0.0,0.0,86,0.00,,---,0.00,VWS V14.01,2013-08-20 22:03:00,
2013-08-20 18:08:00,75.9,71.4,31.01,NE,50,2.2,2.2,86,0.00,,---,0.00,VWS V14.01,2013-08-20 22:08:00,
2013-08-20 18:13:00,75.9,71.4,31.01,NE,49,0.0,0.0,86,0.00,,---,0.00,VWS V14.01,2013-08-20 22:13:00,
2013-08-20 18:18:00,76.1,71.6,31.01,NE,54,0.0,0.0,86,0.00,,---,0.00,VWS V14.01,2013-08-20 22:18:00,
2013-08-20 18:23:00,75.7,71.6,31.01,ENE,62,0.0,0.0,87,0.00,,---,0.00,VWS V14.01,2013-08-20 22:23:00,
2013-08-20 18:28:00,75.4,71.6,31.01,ENE,62,0.0,0.0,88,0.00,,---,0.00,VWS V14.01,2013-08-20 22:28:00,
2013-08-20 18:33:00,75.0,71.6,31.01,ENE,62,0.0,0.0,89,0.00,,---,0.00,VWS V14.01,2013-08-20 22:33:00,
2013-08-20 18:38:00,74.7,71.2,31.01,SE,134,0.0,0.0,89,0.00,,---,0.00,VWS V14.01,2013-08-20 22:38:00,
2013-08-20 18:43:00,74.7,71.2,31.01,SSE,167,2.2,2.2,89,0.00,,---,0.00,VWS V14.01,2013-08-20 22:43:00,
2013-08-20 18:48:00,74.3,70.8,31.01,SE,132,2.7,2.7,89,0.00,,---,0.00,VWS V14.01,2013-08-20 22:48:00,
2013-08-20 18:53:00,74.1,71.0,31.01,SSW,210,0.0,0.0,90,0.00,,---,0.00,VWS V14.01,2013-08-20 22:53:00,
2013-08-20 18:58:00,73.9,70.8,31.01,ENE,77,2.7,2.7,90,0.00,,---,0.00,VWS V14.01,2013-08-20 22:58:00,
2013-08-20 19:03:00,73.8,71.0,31.01,ENE,77,0.0,0.0,91,0.00,,---,0.00,VWS V14.01,2013-08-20 23:03:00,
2013-08-20 19:08:00,73.4,70.9,31.01,ENE,77,0.0,0.0,92,0.00,,---,0.00,VWS V14.01,2013-08-20 23:08:00,
2013-08-20 19:13:00,73.2,71.4,31.01,SSE,150,0.0,0.0,94,0.00,,---,0.00,VWS V14.01,2013-08-20 23:13:00,
2013-08-20 19:18:00,73.0,71.2,31.01,SE,124,3.6,3.6,94,0.00,,---,0.00,VWS V14.01,2013-08-20 23:18:00,
2013-08-20 19:23:00,72.7,71.2,31.01,ESE,118,0.0,0.0,95,0.00,,---,0.00,VWS V14.01,2013-08-20 23:23:00,
2013-08-20 19:28:00,72.5,71.3,31.01,ESE,103,0.0,0.0,96,0.00,,---,0.00,VWS V14.01,2013-08-20 23:28:00,
2013-08-20 19:33:00,72.3,71.4,31.01,ESE,103,0.0,0.0,97,0.00,,---,0.00,VWS V14.01,2013-08-20 23:33:00,
2013-08-20 19:38:00,72.1,71.6,31.01,ESE,103,0.0,0.0,98,0.00,,---,0.00,VWS V14.01,2013-08-20 23:38:00,
2013-08-20 19:43:00,72.0,71.4,31.01,ESE,103,0.0,0.0,98,0.00,,---,0.00,VWS V14.01,2013-08-20 23:43:00,
2013-08-20 19:48:00,72.0,71.4,31.01,ESE,103,2.2,2.2,98,0.00,,---,0.00,VWS V14.01,2013-08-20 23:48:00,
2013-08-20 19:53:00,72.0,71.4,31.01,ESE,103,3.1,3.1,98,0.00,,---,0.00,VWS V14.01,2013-08-20 23:53:00,
2013-08-20 19:58:00,71.8,71.2,31.01,ESE,104,0.0,0.0,98,0.00,,---,0.00,VWS V14.01,2013-08-20 23:58:00,
2013-08-20 20:03:00,71.4,70.8,31.01,NE,42,0.0,0.0,98,0.00,,---,0.00,VWS V14.01,2013-08-21 00:03:00,
2013-08-20 20:08:00,71.4,70.8,31.01,NE,42,0.0,0.0,98,0.00,,---,0.00,VWS V14.01,2013-08-21 00:08:00,
2013-08-20 20:13:00,71.2,70.7,31.01,NE,42,0.0,0.0,98,0.00,,---,0.00,VWS V14.01,2013-08-21 00:13:00,
2013-08-20 20:18:00,71.2,70.7,31.01,NE,42,0.0,0.0,98,0.00,,---,0.00,VWS V14.01,2013-08-21 00:18:00,
2013-08-20 20:23:00,71.2,70.7,31.01,NE,42,0.0,0.0,98,0.00,,---,0.00,VWS V14.01,2013-08-21 00:23:00,
2013-08-20 20:28:00,71.1,70.5,31.01,SE,132,0.0,3.6,98,0.00,,---,0.00,VWS V14.01,2013-08-21 00:28:00,
2013-08-20 20:33:00,71.1,70.5,31.01,ESE,116,2.2,3.1,98,0.00,,---,0.00,VWS V14.01,2013-08-21 00:33:00,
2013-08-20 20:38:00,71.1,70.5,31.01,ESE,116,0.0,0.0,98,0.00,,---,0.00,VWS V14.01,2013-08-21 00:38:00,
2013-08-20 20:43:00,71.1,70.5,31.01,ESE,116,0.0,0.0,98,0.00,,---,0.00,VWS V14.01,2013-08-21 00:43:00,
2013-08-20 20:48:00,70.9,70.3,31.01,East,87,0.0,0.0,98,0.00,,---,0.00,VWS V14.01,2013-08-21 00:48:00,
2013-08-20 20:53:00,70.9,70.3,31.01,ESE,104,0.0,0.0,98,0.00,,---,0.00,VWS V14.01,2013-08-21 00:53:00,
2013-08-20 20:58:00,70.9,70.3,31.01,NNE,14,0.0,0.0,98,0.00,,---,0.00,VWS V14.01,2013-08-21 00:58:00,
2013-08-20 21:03:00,70.7,70.1,31.01,NE,37,3.6,3.6,98,0.00,,---,0.00,VWS V14.01,2013-08-21 01:03:00,
2013-08-20 21:08:00,70.7,70.1,31.01,SE,142,0.0,0.0,98,0.00,,---,0.00,VWS V14.01,2013-08-21 01:08:00,
2013-08-20 21:13:00,70.7,70.1,31.01,WNW,285,2.2,2.2,98,0.00,,---,0.00,VWS V14.01,2013-08-21 01:13:00,
2013-08-20 21:18:00,70.5,69.9,31.01,WNW,284,0.0,2.2,98,0.00,,---,0.00,VWS V14.01,2013-08-21 01:18:00,
2013-08-20 21:19:00,70.5,69.9,31.01,WNW,284,0.0,0.0,98,0.00,,---,0.00,VWS V14.01,2013-08-21 01:19:00,
2013-08-20 21:24:00,70.5,69.9,31.01,WNW,284,2.7,2.7,98,0.00,,---,0.00,VWS V14.01,2013-08-21 01:24:00,
2013-08-20 21:29:00,70.5,69.9,31.01,WNW,301,0.0,0.0,98,0.00,,---,0.00,VWS V14.01,2013-08-21 01:29:00,
2013-08-20 21:34:00,70.3,69.8,31.01,NE,48,0.0,2.2,98,0.00,,---,0.00,VWS V14.01,2013-08-21 01:34:00,
2013-08-20 21:39:00,70.3,69.8,31.01,NE,48,2.2,2.2,98,0.00,,---,0.00,VWS V14.01,2013-08-21 01:39:00,
2013-08-20 21:44:00,70.2,69.6,31.01,ENE,72,0.0,2.7,98,0.00,,---,0.00,VWS V14.01,2013-08-21 01:44:00,
2013-08-20 21:49:00,70.2,69.6,31.01,ENE,60,3.1,3.6,98,0.00,,---,0.00,VWS V14.01,2013-08-21 01:49:00,
2013-08-20 21:54:00,70.0,69.4,31.01,NE,51,0.0,0.0,98,0.00,,---,0.00,VWS V14.01,2013-08-21 01:54:00,
2013-08-20 21:59:00,70.0,69.4,31.01,East,92,0.0,0.0,98,0.00,,---,0.00,VWS V14.01,2013-08-21 01:59:00,
2013-08-20 22:04:00,70.0,69.4,31.01,East,92,0.0,0.0,98,0.00,,---,0.00,VWS V14.01,2013-08-21 02:04:00,
2013-08-20 22:09:00,69.8,69.2,31.01,East,92,0.0,0.0,98,0.00,,---,0.00,VWS V14.01,2013-08-21 02:09:00,
2013-08-20 22:14:00,69.8,69.2,31.01,East,92,0.0,0.0,98,0.00,,---,0.00,VWS V14.01,2013-08-21 02:14:00,
2013-08-20 22:19:00,69.8,69.2,31.01,East,92,0.0,0.0,98,0.00,,---,0.00,VWS V14.01,2013-08-21 02:19:00,
2013-08-20 22:24:00,69.6,69.0,31.01,East,92,0.0,0.0,98,0.00,,---,0.00,VWS V14.01,2013-08-21 02:24:00,
2013-08-20 22:29:00,69.6,69.0,31.01,East,97,0.0,0.0,98,0.00,,---,0.00,VWS V14.01,2013-08-21 02:29:00,
2013-08-20 22:34:00,69.6,69.0,31.01,East,97,0.0,0.0,98,0.00,,---,0.00,VWS V14.01,2013-08-21 02:34:00,
2013-08-20 22:39:00,69.6,69.0,31.01,East,97,0.0,0.0,98,0.00,,---,0.00,VWS V14.01,2013-08-21 02:39:00,
2013-08-20 22:44:00,69.4,68.8,31.01,East,97,0.0,0.0,98,0.00,,---,0.00,VWS V14.01,2013-08-21 02:44:00,
2013-08-20 22:49:00,69.4,68.8,31.01,East,97,0.0,0.0,98,0.00,,---,0.00,VWS V14.01,2013-08-21 02:49:00,
2013-08-20 22:54:00,69.4,68.8,31.01,East,97,0.0,0.0,98,0.00,,---,0.00,VWS V14.01,2013-08-21 02:54:00,
2013-08-20 22:59:00,69.4,68.8,31.01,ENE,70,2.2,2.7,98,0.00,,---,0.00,VWS V14.01,2013-08-21 02:59:00,
2013-08-20 23:04:00,69.4,68.8,31.01,North,0,2.2,2.2,98,0.00,,---,0.00,VWS V14.01,2013-08-21 03:04:00,
2013-08-20 23:09:00,69.4,68.8,31.01,North,0,0.0,0.0,98,0.00,,---,0.00,VWS V14.01,2013-08-21 03:09:00,
2013-08-20 23:14:00,69.3,68.7,31.01,North,0,0.0,0.0,98,0.00,,---,0.00,VWS V14.01,2013-08-21 03:14:00,
2013-08-20 23:19:00,69.3,68.7,31.01,WNW,296,0.0,0.0,98,0.00,,---,0.00,VWS V14.01,2013-08-21 03:19:00,
2013-08-20 23:24:00,69.3,68.7,31.01,WNW,296,0.0,0.0,98,0.00,,---,0.00,VWS V14.01,2013-08-21 03:24:00,
2013-08-20 23:29:00,69.3,68.7,31.01,WNW,296,0.0,0.0,98,0.00,,---,0.00,VWS V14.01,2013-08-21 03:29:00,
2013-08-20 23:34:00,69.3,68.7,31.01,WNW,296,0.0,0.0,98,0.00,,---,0.00,VWS V14.01,2013-08-21 03:34:00,
2013-08-20 23:39:00,69.1,68.5,31.01,WNW,296,0.0,0.0,98,0.00,,---,0.00,VWS V14.01,2013-08-21 03:39:00,
2013-08-20 23:44:00,69.1,68.5,31.01,WNW,296,0.0,0.0,98,0.00,,---,0.00,VWS V14.01,2013-08-21 03:44:00,
2013-08-20 23:49:00,68.9,68.3,31.01,WNW,296,0.0,0.0,98,0.00,,---,0.00,VWS V14.01,2013-08-21 03:49:00,
2013-08-20 23:54:00,68.7,68.1,31.01,WNW,296,0.0,0.0,98,0.00,,---,0.00,VWS V14.01,2013-08-21 03:54:00,
2013-08-20 23:59:00,68.7,68.1,31.01,WNW,296,0.0,0.0,98,0.00,,---,0.00,VWS V14.01,2013-08-21 03:59:00,